Time,TemperatureF,DewpointF,PressureIn,WindDirection,WindDirectionDegrees,WindSpeedMPH,WindSpeedGustMPH,Humidity,HourlyPrecipIn,Conditions,Clouds,dailyrainin,SoftwareType,DateUTC
2013-10-31 00:01:00,50.0,42.8,30.12,SW,225,0.7,4.3,76,0.00,,,0.00,WUHU216HW,2013-10-31 07:01:00,
2013-10-31 00:06:00,50.0,42.8,30.12,ESE,113,0.4,4.0,76,0.00,,,0.00,WUHU216HW,2013-10-31 07:06:00,
2013-10-31 00:11:00,50.0,43.1,30.12,South,180,1.8,4.0,77,0.00,,,0.00,WUHU216HW,2013-10-31 07:11:00,
2013-10-31 00:16:00,50.0,43.4,30.12,South,180,0.9,3.1,78,0.00,,,0.00,WUHU216HW,2013-10-31 07:16:00,
2013-10-31 00:21:00,50.0,43.1,30.11,WNW,293,2.7,3.1,77,0.00,,,0.00,WUHU216HW,2013-10-31 07:21:00,
2013-10-31 00:26:00,50.0,43.4,30.11,East,90,1.1,2.7,78,0.00,,,0.00,WUHU216HW,2013-10-31 07:26:00,
2013-10-31 00:31:00,50.0,43.4,30.12,SE,135,0.7,2.7,78,0.00,,,0.00,WUHU216HW,2013-10-31 07:31:00,
2013-10-31 00:36:00,49.9,43.2,30.12,ESE,113,0.0,2.2,78,0.00,,,0.00,WUHU216HW,2013-10-31 07:36:00,
2013-10-31 00:41:00,49.9,43.2,30.12,SW,225,0.0,1.6,78,0.00,,,0.00,WUHU216HW,2013-10-31 07:41:00,
2013-10-31 00:46:00,49.9,43.2,30.12,SW,225,0.4,0.9,78,0.00,,,0.00,WUHU216HW,2013-10-31 07:46:00,
2013-10-31 00:51:00,49.7,43.0,30.12,SSE,158,0.0,1.1,78,0.00,,,0.00,WUHU216HW,2013-10-31 07:51:00,
2013-10-31 00:56:00,49.7,43.0,30.11,ESE,113,0.2,2.2,78,0.00,,,0.00,WUHU216HW,2013-10-31 07:56:00,
2013-10-31 01:01:00,49.7,43.0,30.11,SSW,203,0.9,2.2,78,0.00,,,0.00,WUHU216HW,2013-10-31 08:01:00,
2013-10-31 01:06:00,49.7,43.0,30.11,SSE,158,1.8,1.8,78,0.00,,,0.00,WUHU216HW,2013-10-31 08:06:00,
2013-10-31 01:11:00,49.7,43.0,30.11,East,90,0.7,3.6,78,0.00,,,0.00,WUHU216HW,2013-10-31 08:11:00,
2013-10-31 01:16:00,49.7,42.8,30.11,SSW,203,2.2,3.6,77,0.00,,,0.00,WUHU216HW,2013-10-31 08:16:00,
2013-10-31 01:21:00,49.7,42.8,30.11,SSE,158,0.0,3.4,77,0.00,,,0.00,WUHU216HW,2013-10-31 08:21:00,
2013-10-31 01:26:00,49.7,42.8,30.12,ESE,113,3.1,3.1,77,0.00,,,0.00,WUHU216HW,2013-10-31 08:26:00,
2013-10-31 01:31:00,49.7,42.8,30.12,SE,135,0.2,3.1,77,0.00,,,0.00,WUHU216HW,2013-10-31 08:31:00,
2013-10-31 01:36:00,49.7,42.8,30.12,SSE,158,0.2,3.1,77,0.00,,,0.00,WUHU216HW,2013-10-31 08:36:00,
2013-10-31 01:41:00,49.9,42.9,30.12,SSE,158,0.2,0.7,77,0.00,,,0.00,WUHU216HW,2013-10-31 08:41:00,
2013-10-31 01:46:00,49.9,42.9,30.12,SSE,158,0.0,1.1,77,0.00,,,0.00,WUHU216HW,2013-10-31 08:46:00,
2013-10-31 01:51:00,49.9,42.9,30.12,SSW,203,0.4,1.1,77,0.00,,,0.00,WUHU216HW,2013-10-31 08:51:00,
2013-10-31 01:56:00,49.9,42.9,30.12,ESE,113,0.9,1.1,77,0.00,,,0.00,WUHU216HW,2013-10-31 08:56:00,
2013-10-31 02:01:00,49.7,42.8,30.12,SSE,158,0.2,1.3,77,0.00,,,0.00,WUHU216HW,2013-10-31 09:01:00,
2013-10-31 02:06:00,49.7,42.8,30.12,SSE,158,0.0,1.3,77,0.00,,,0.00,WUHU216HW,2013-10-31 09:06:00,
2013-10-31 02:11:00,49.7,42.8,30.12,SSE,158,0.0,0.7,77,0.00,,,0.00,WUHU216HW,2013-10-31 09:11:00,
2013-10-31 02:16:00,49.7,42.8,30.12,SE,135,0.0,0.7,77,0.00,,,0.00,WUHU216HW,2013-10-31 09:16:00,
2013-10-31 02:21:00,49.9,42.9,30.11,ENE,68,1.6,1.6,77,0.00,,,0.00,WUHU216HW,2013-10-31 09:21:00,
2013-10-31 02:26:00,49.9,42.9,30.11,East,90,0.0,1.8,77,0.00,,,0.00,WUHU216HW,2013-10-31 09:26:00,
2013-10-31 02:31:00,49.7,42.8,30.12,East,90,0.0,1.8,77,0.00,,,0.00,WUHU216HW,2013-10-31 09:31:00,
2013-10-31 02:36:00,49.7,43.0,30.13,NNE,23,0.0,0.2,78,0.00,,,0.00,WUHU216HW,2013-10-31 09:36:00,
2013-10-31 02:41:00,49.7,43.0,30.13,NNE,23,0.0,0.2,78,0.00,,,0.00,WUHU216HW,2013-10-31 09:41:00,
2013-10-31 02:46:00,49.7,43.0,30.13,South,180,0.4,0.4,78,0.00,,,0.00,WUHU216HW,2013-10-31 09:46:00,
2013-10-31 02:51:00,49.7,43.0,30.13,South,180,0.0,0.4,78,0.00,,,0.00,WUHU216HW,2013-10-31 09:51:00,
2013-10-31 02:56:00,49.7,43.0,30.12,SW,225,1.8,1.8,78,0.00,,,0.00,WUHU216HW,2013-10-31 09:56:00,
2013-10-31 03:01:00,49.7,43.0,30.12,SSE,158,0.4,1.8,78,0.00,,,0.00,WUHU216HW,2013-10-31 10:01:00,
2013-10-31 03:06:00,49.7,43.0,30.11,SE,135,0.0,1.8,78,0.00,,,0.00,WUHU216HW,2013-10-31 10:06:00,
2013-10-31 03:11:00,49.7,43.0,30.11,ESE,113,0.2,1.1,78,0.00,,,0.00,WUHU216HW,2013-10-31 10:11:00,
2013-10-31 03:16:00,49.7,43.4,30.11,NE,45,0.0,1.1,79,0.00,,,0.00,WUHU216HW,2013-10-31 10:16:00,
2013-10-31 03:21:00,49.5,43.2,30.11,ESE,113,0.2,0.2,79,0.00,,,0.00,WUHU216HW,2013-10-31 10:21:00,
2013-10-31 03:26:00,49.5,43.6,30.11,WNW,293,1.1,1.6,80,0.00,,,0.00,WUHU216HW,2013-10-31 10:26:00,
2013-10-31 03:31:00,49.5,43.2,30.12,NW,315,0.0,1.6,79,0.00,,,0.00,WUHU216HW,2013-10-31 10:31:00,
2013-10-31 03:36:00,49.5,43.2,30.11,SSW,203,1.8,3.4,79,0.00,,,0.00,WUHU216HW,2013-10-31 10:36:00,
2013-10-31 03:41:00,49.5,43.2,30.12,SSE,158,0.0,3.4,79,0.00,,,0.00,WUHU216HW,2013-10-31 10:41:00,
2013-10-31 03:46:00,49.5,43.2,30.11,WSW,248,0.2,2.0,79,0.00,,,0.00,WUHU216HW,2013-10-31 10:46:00,
2013-10-31 03:51:00,49.5,42.8,30.11,ESE,113,0.7,2.0,78,0.00,,,0.00,WUHU216HW,2013-10-31 10:51:00,
2013-10-31 03:56:00,49.5,43.2,30.11,South,180,0.2,2.0,79,0.00,,,0.00,WUHU216HW,2013-10-31 10:56:00,
2013-10-31 04:01:00,49.5,43.2,30.12,SSE,158,0.0,2.2,79,0.00,,,0.00,WUHU216HW,2013-10-31 11:01:00,
2013-10-31 04:06:00,49.5,43.2,30.12,South,180,0.0,2.2,79,0.00,,,0.00,WUHU216HW,2013-10-31 11:06:00,
2013-10-31 04:11:00,49.5,43.2,30.11,SW,225,2.2,2.2,79,0.00,,,0.00,WUHU216HW,2013-10-31 11:11:00,
2013-10-31 04:16:00,49.5,43.2,30.11,SW,225,0.4,2.2,79,0.00,,,0.00,WUHU216HW,2013-10-31 11:16:00,
2013-10-31 04:21:00,49.5,43.2,30.11,SW,225,0.2,3.4,79,0.00,,,0.00,WUHU216HW,2013-10-31 11:21:00,
2013-10-31 04:26:00,49.5,43.6,30.11,SE,135,0.4,3.4,80,0.00,,,0.00,WUHU216HW,2013-10-31 11:26:00,
2013-10-31 04:31:00,49.5,43.6,30.11,ESE,113,0.2,0.9,80,0.00,,,0.00,WUHU216HW,2013-10-31 11:31:00,
2013-10-31 04:36:00,49.5,43.6,30.11,NE,45,0.4,0.9,80,0.00,,,0.00,WUHU216HW,2013-10-31 11:36:00,
2013-10-31 04:41:00,49.5,43.8,30.11,SSE,158,0.4,0.9,81,0.00,,,0.00,WUHU216HW,2013-10-31 11:41:00,
2013-10-31 04:46:00,49.7,44.0,30.11,SSW,203,0.4,1.6,81,0.00,,,0.00,WUHU216HW,2013-10-31 11:46:00,
2013-10-31 04:51:00,49.5,43.8,30.11,WSW,248,0.9,1.6,81,0.00,,,0.00,WUHU216HW,2013-10-31 11:51:00,
2013-10-31 04:56:00,49.5,44.2,30.11,SSW,203,0.0,1.6,82,0.00,,,0.00,WUHU216HW,2013-10-31 11:56:00,
2013-10-31 05:01:00,49.5,43.8,30.11,SW,225,0.0,0.9,81,0.00,,,0.00,WUHU216HW,2013-10-31 12:01:00,
2013-10-31 05:06:00,49.5,44.2,30.11,South,180,0.0,0.7,82,0.00,,,0.00,WUHU216HW,2013-10-31 12:06:00,
2013-10-31 05:11:00,49.5,44.2,30.12,SW,225,0.4,1.8,82,0.00,,,0.00,WUHU216HW,2013-10-31 12:11:00,
2013-10-31 05:16:00,49.5,44.2,30.11,SSW,203,0.2,1.8,82,0.00,,,0.00,WUHU216HW,2013-10-31 12:16:00,
2013-10-31 05:21:00,49.5,44.2,30.11,SSE,158,0.4,0.7,82,0.00,,,0.00,WUHU216HW,2013-10-31 12:21:00,
2013-10-31 05:26:00,49.5,44.5,30.11,South,180,0.4,1.6,83,0.00,,,0.00,WUHU216HW,2013-10-31 12:26:00,
2013-10-31 05:31:00,49.5,44.5,30.12,SSW,203,0.0,1.6,83,0.00,,,0.00,WUHU216HW,2013-10-31 12:31:00,
2013-10-31 05:36:00,49.5,44.8,30.11,SSW,203,0.4,1.1,84,0.02,,,0.02,WUHU216HW,2013-10-31 12:36:00,
2013-10-31 05:41:00,49.3,44.3,30.11,South,180,0.0,1.1,83,0.02,,,0.02,WUHU216HW,2013-10-31 12:41:00,
2013-10-31 05:46:00,49.3,44.3,30.11,SSE,158,0.0,1.3,83,0.02,,,0.02,WUHU216HW,2013-10-31 12:46:00,
2013-10-31 05:51:00,49.5,44.5,30.11,SSW,203,0.0,1.6,83,0.02,,,0.02,WUHU216HW,2013-10-31 12:51:00,
2013-10-31 05:56:00,49.3,44.7,30.11,ESE,113,0.0,1.6,84,0.02,,,0.02,WUHU216HW,2013-10-31 12:56:00,
2013-10-31 06:01:00,49.3,44.9,30.11,SSW,203,0.4,1.8,85,0.02,,,0.02,WUHU216HW,2013-10-31 13:01:00,
2013-10-31 06:06:00,49.3,44.9,30.11,East,90,1.1,1.8,85,0.02,,,0.02,WUHU216HW,2013-10-31 13:06:00,
2013-10-31 06:11:00,49.3,44.9,30.11,ESE,113,0.4,1.8,85,0.02,,,0.02,WUHU216HW,2013-10-31 13:11:00,
2013-10-31 06:16:00,49.5,45.1,30.11,ENE,68,0.7,1.1,85,0.02,,,0.02,WUHU216HW,2013-10-31 13:16:00,
2013-10-31 06:21:00,49.5,45.1,30.11,SSW,203,0.0,2.5,85,0.02,,,0.02,WUHU216HW,2013-10-31 13:21:00,
2013-10-31 06:26:00,49.3,44.9,30.11,SE,135,0.9,2.5,85,0.02,,,0.02,WUHU216HW,2013-10-31 13:26:00,
2013-10-31 06:31:00,49.5,45.1,30.11,ENE,68,1.1,2.0,85,0.00,,,0.02,WUHU216HW,2013-10-31 13:31:00,
2013-10-31 06:36:00,49.5,45.1,30.11,SE,135,0.2,2.0,85,0.00,,,0.02,WUHU216HW,2013-10-31 13:36:00,
2013-10-31 06:41:00,49.5,45.1,30.11,South,180,0.2,2.0,85,0.00,,,0.02,WUHU216HW,2013-10-31 13:41:00,
2013-10-31 06:46:00,49.5,45.1,30.11,SSW,203,0.2,1.8,85,0.00,,,0.02,WUHU216HW,2013-10-31 13:46:00,
2013-10-31 06:51:00,49.5,45.1,30.12,SE,135,0.2,1.3,85,0.00,,,0.02,WUHU216HW,2013-10-31 13:51:00,
2013-10-31 06:56:00,49.5,45.1,30.12,SW,225,0.2,2.0,85,0.00,,,0.02,WUHU216HW,2013-10-31 13:56:00,
2013-10-31 07:01:00,49.5,45.1,30.12,SW,225,0.2,2.0,85,0.00,,,0.02,WUHU216HW,2013-10-31 14:01:00,
2013-10-31 07:06:00,49.5,45.1,30.12,WSW,248,0.4,2.0,85,0.00,,,0.02,WUHU216HW,2013-10-31 14:06:00,
2013-10-31 07:11:00,49.5,45.1,30.12,ESE,113,0.4,2.0,85,0.00,,,0.02,WUHU216HW,2013-10-31 14:11:00,
2013-10-31 07:16:00,49.5,45.1,30.12,SW,225,1.1,1.3,85,0.00,,,0.02,WUHU216HW,2013-10-31 14:16:00,
2013-10-31 07:21:00,49.5,45.1,30.12,SW,225,1.8,3.6,85,0.00,,,0.02,WUHU216HW,2013-10-31 14:21:00,
2013-10-31 07:26:00,49.5,45.5,30.12,SE,135,0.9,3.6,86,0.00,,,0.02,WUHU216HW,2013-10-31 14:26:00,
2013-10-31 07:31:00,49.5,45.1,30.12,SSW,203,0.4,1.8,85,0.00,,,0.02,WUHU216HW,2013-10-31 14:31:00,
2013-10-31 07:36:00,49.5,45.1,30.13,SW,225,0.0,1.8,85,0.00,,,0.02,WUHU216HW,2013-10-31 14:36:00,
2013-10-31 07:41:00,49.7,45.9,30.13,SW,225,0.2,2.0,87,0.00,,,0.02,WUHU216HW,2013-10-31 14:41:00,
2013-10-31 07:46:00,49.7,45.6,30.13,South,180,0.0,2.0,86,0.00,,,0.02,WUHU216HW,2013-10-31 14:46:00,
2013-10-31 07:51:00,49.7,45.9,30.13,South,180,1.1,1.1,87,0.00,,,0.02,WUHU216HW,2013-10-31 14:51:00,
2013-10-31 07:56:00,49.7,45.9,30.13,SSW,203,1.1,1.8,87,0.00,,,0.02,WUHU216HW,2013-10-31 14:56:00,
2013-10-31 08:01:00,49.7,45.9,30.13,SSW,203,0.2,1.8,87,0.00,,,0.02,WUHU216HW,2013-10-31 15:01:00,
2013-10-31 08:06:00,49.7,45.6,30.13,SSE,158,0.0,1.6,86,0.00,,,0.02,WUHU216HW,2013-10-31 15:06:00,
2013-10-31 08:11:00,49.7,45.9,30.13,SW,225,0.2,1.6,87,0.00,,,0.02,WUHU216HW,2013-10-31 15:11:00,
2013-10-31 08:16:00,49.7,45.6,30.13,SW,225,0.4,0.4,86,0.00,,,0.02,WUHU216HW,2013-10-31 15:16:00,
2013-10-31 08:21:00,49.7,45.6,30.13,WSW,248,0.0,0.7,86,0.00,,,0.02,WUHU216HW,2013-10-31 15:21:00,
2013-10-31 08:26:00,49.7,45.9,30.14,West,270,0.2,2.0,87,0.00,,,0.02,WUHU216HW,2013-10-31 15:26:00,
2013-10-31 08:31:00,49.7,45.6,30.14,SSW,203,0.0,2.0,86,0.00,,,0.02,WUHU216HW,2013-10-31 15:31:00,
2013-10-31 08:36:00,49.7,45.9,30.14,SW,225,0.4,0.4,87,0.00,,,0.02,WUHU216HW,2013-10-31 15:36:00,
2013-10-31 08:41:00,49.7,45.9,30.14,South,180,0.4,0.4,87,0.00,,,0.02,WUHU216HW,2013-10-31 15:41:00,
2013-10-31 08:46:00,49.7,45.9,30.14,South,180,0.0,1.1,87,0.00,,,0.02,WUHU216HW,2013-10-31 15:46:00,
2013-10-31 08:51:00,49.7,45.9,30.15,South,180,0.2,1.1,87,0.00,,,0.02,WUHU216HW,2013-10-31 15:51:00,
2013-10-31 08:56:00,49.7,45.9,30.15,South,180,0.0,0.4,87,0.00,,,0.02,WUHU216HW,2013-10-31 15:56:00,
2013-10-31 09:01:00,49.7,45.9,30.15,South,180,0.0,0.4,87,0.00,,,0.02,WUHU216HW,2013-10-31 16:01:00,
2013-10-31 09:06:00,49.7,45.9,30.15,SSW,203,0.0,0.4,87,0.00,,,0.02,WUHU216HW,2013-10-31 16:06:00,
2013-10-31 09:11:00,49.7,46.3,30.15,SW,225,0.0,0.4,88,0.00,,,0.02,WUHU216HW,2013-10-31 16:11:00,
2013-10-31 09:16:00,49.7,46.3,30.15,SSW,203,1.3,1.3,88,0.00,,,0.02,WUHU216HW,2013-10-31 16:16:00,
2013-10-31 09:21:00,49.7,46.3,30.15,SSW,203,1.8,1.8,88,0.00,,,0.02,WUHU216HW,2013-10-31 16:21:00,
2013-10-31 09:26:00,49.7,46.3,30.16,SW,225,0.7,2.5,88,0.00,,,0.02,WUHU216HW,2013-10-31 16:26:00,
2013-10-31 09:31:00,49.9,46.4,30.16,SSW,203,0.2,2.5,88,0.00,,,0.02,WUHU216HW,2013-10-31 16:31:00,
2013-10-31 09:36:00,49.9,46.4,30.16,South,180,0.0,0.7,88,0.00,,,0.02,WUHU216HW,2013-10-31 16:36:00,
2013-10-31 09:41:00,49.9,46.4,30.17,South,180,0.0,0.7,88,0.00,,,0.02,WUHU216HW,2013-10-31 16:41:00,
2013-10-31 09:46:00,50.0,46.5,30.17,South,180,0.2,0.2,88,0.00,,,0.02,WUHU216HW,2013-10-31 16:46:00,
2013-10-31 09:51:00,50.0,46.3,30.16,SW,225,0.0,0.4,87,0.00,,,0.02,WUHU216HW,2013-10-31 16:51:00,
2013-10-31 09:56:00,50.0,46.5,30.16,SW,225,0.0,0.4,88,0.00,,,0.02,WUHU216HW,2013-10-31 16:56:00,
2013-10-31 10:01:00,50.0,46.5,30.16,East,90,0.4,1.1,88,0.00,,,0.02,WUHU216HW,2013-10-31 17:01:00,
2013-10-31 10:06:00,50.0,46.5,30.16,East,90,0.4,1.1,88,0.00,,,0.02,WUHU216HW,2013-10-31 17:06:00,
2013-10-31 10:11:00,50.0,46.9,30.16,East,90,0.2,0.7,89,0.00,,,0.02,WUHU216HW,2013-10-31 17:11:00,
2013-10-31 10:16:00,49.9,46.4,30.16,East,90,0.2,0.7,88,0.00,,,0.02,WUHU216HW,2013-10-31 17:16:00,
2013-10-31 10:21:00,50.0,46.5,30.16,SSE,158,0.2,0.4,88,0.00,,,0.02,WUHU216HW,2013-10-31 17:21:00,
2013-10-31 10:26:00,50.0,46.5,30.17,SSW,203,0.4,0.9,88,0.00,,,0.02,WUHU216HW,2013-10-31 17:26:00,
2013-10-31 10:31:00,50.0,46.9,30.17,SE,135,0.7,0.9,89,0.00,,,0.02,WUHU216HW,2013-10-31 17:31:00,
2013-10-31 10:36:00,50.0,46.5,30.17,SSE,158,0.2,1.6,88,0.00,,,0.02,WUHU216HW,2013-10-31 17:36:00,
2013-10-31 10:41:00,50.0,46.5,30.17,SSE,158,0.0,1.6,88,0.00,,,0.02,WUHU216HW,2013-10-31 17:41:00,
2013-10-31 10:46:00,50.0,46.9,30.17,East,90,0.0,1.1,89,0.00,,,0.02,WUHU216HW,2013-10-31 17:46:00,
2013-10-31 10:51:00,50.0,46.5,30.17,SW,225,0.0,1.1,88,0.00,,,0.02,WUHU216HW,2013-10-31 17:51:00,
2013-10-31 10:56:00,50.2,46.7,30.17,SW,225,0.4,1.1,88,0.00,,,0.02,WUHU216HW,2013-10-31 17:56:00,
2013-10-31 11:01:00,50.4,46.9,30.17,South,180,0.4,1.8,88,0.00,,,0.02,WUHU216HW,2013-10-31 18:01:00,
2013-10-31 11:06:00,50.4,46.9,30.18,SSW,203,0.4,1.8,88,0.00,,,0.02,WUHU216HW,2013-10-31 18:06:00,
2013-10-31 11:11:00,50.4,46.9,30.18,West,270,0.4,1.1,88,0.00,,,0.02,WUHU216HW,2013-10-31 18:11:00,
2013-10-31 11:16:00,50.6,47.1,30.18,ESE,113,0.0,1.1,88,0.00,,,0.02,WUHU216HW,2013-10-31 18:16:00,
2013-10-31 11:21:00,50.4,46.9,30.18,WSW,248,0.0,0.7,88,0.00,,,0.02,WUHU216HW,2013-10-31 18:21:00,
2013-10-31 11:26:00,50.6,47.1,30.18,SW,225,0.0,2.0,88,0.00,,,0.02,WUHU216HW,2013-10-31 18:26:00,
2013-10-31 11:31:00,50.6,47.1,30.18,SE,135,0.4,2.0,88,0.00,,,0.02,WUHU216HW,2013-10-31 18:31:00,
2013-10-31 11:36:00,50.8,47.3,30.18,SW,225,0.2,2.5,88,0.00,,,0.02,WUHU216HW,2013-10-31 18:36:00,
2013-10-31 11:41:00,50.8,47.6,30.18,SSW,203,0.2,2.5,89,0.00,,,0.02,WUHU216HW,2013-10-31 18:41:00,
2013-10-31 11:46:00,50.8,47.6,30.19,West,270,0.4,0.4,89,0.00,,,0.02,WUHU216HW,2013-10-31 18:46:00,
2013-10-31 11:51:00,50.9,47.8,30.18,SSE,158,0.4,2.0,89,0.00,,,0.02,WUHU216HW,2013-10-31 18:51:00,
2013-10-31 11:56:00,50.9,47.8,30.19,SW,225,1.1,2.0,89,0.00,,,0.02,WUHU216HW,2013-10-31 18:56:00,
2013-10-31 12:01:00,50.9,47.8,30.19,SSE,158,0.4,1.3,89,0.00,,,0.02,WUHU216HW,2013-10-31 19:01:00,
2013-10-31 12:06:00,50.9,47.8,30.18,SE,135,0.2,1.8,89,0.00,,,0.02,WUHU216HW,2013-10-31 19:06:00,
2013-10-31 12:11:00,50.9,47.8,30.19,ESE,113,1.1,1.8,89,0.00,,,0.02,WUHU216HW,2013-10-31 19:11:00,
2013-10-31 12:16:00,51.1,48.0,30.19,SSW,203,0.4,1.3,89,0.00,,,0.02,WUHU216HW,2013-10-31 19:16:00,
2013-10-31 12:21:00,51.1,48.0,30.19,ENE,68,0.0,1.8,89,0.00,,,0.02,WUHU216HW,2013-10-31 19:21:00,
2013-10-31 12:26:00,51.1,48.0,30.19,ESE,113,0.0,1.8,89,0.00,,,0.02,WUHU216HW,2013-10-31 19:26:00,
2013-10-31 12:31:00,51.1,48.0,30.19,SSW,203,0.4,1.1,89,0.00,,,0.02,WUHU216HW,2013-10-31 19:31:00,
2013-10-31 12:36:00,51.3,48.2,30.19,SW,225,0.0,1.1,89,0.00,,,0.02,WUHU216HW,2013-10-31 19:36:00,
2013-10-31 12:41:00,51.3,48.2,30.19,SW,225,0.7,1.8,89,0.00,,,0.02,WUHU216HW,2013-10-31 19:41:00,
2013-10-31 12:46:00,51.3,48.2,30.19,WNW,293,0.2,1.8,89,0.00,,,0.02,WUHU216HW,2013-10-31 19:46:00,
2013-10-31 12:51:00,51.3,48.2,30.19,SW,225,1.6,1.6,89,0.00,,,0.02,WUHU216HW,2013-10-31 19:51:00,
2013-10-31 12:53:00,51.3,48.2,30.19,WSW,248,0.4,1.6,89,0.00,,,0.02,WUHU216HW,2013-10-31 19:53:00,
2013-10-31 12:58:00,51.5,48.3,30.19,SE,135,1.1,2.5,89,0.00,,,0.02,WUHU216HW,2013-10-31 19:58:00,
2013-10-31 13:03:00,51.5,48.3,30.19,North,0,0.4,2.5,89,0.00,,,0.02,WUHU216HW,2013-10-31 20:03:00,
2013-10-31 13:08:00,51.5,48.3,30.19,WSW,248,0.0,1.8,89,0.00,,,0.02,WUHU216HW,2013-10-31 20:08:00,
2013-10-31 13:13:00,51.5,48.3,30.19,SE,135,0.9,2.7,89,0.00,,,0.02,WUHU216HW,2013-10-31 20:13:00,
2013-10-31 13:18:00,51.5,48.3,30.19,SSE,158,0.0,2.7,89,0.00,,,0.02,WUHU216HW,2013-10-31 20:18:00,
2013-10-31 13:23:00,51.5,48.3,30.20,SSE,158,0.2,0.9,89,0.00,,,0.02,WUHU216HW,2013-10-31 20:23:00,
2013-10-31 13:28:00,51.5,48.3,30.19,SW,225,0.4,1.1,89,0.00,,,0.02,WUHU216HW,2013-10-31 20:28:00,
2013-10-31 13:33:00,51.5,48.3,30.19,SSW,203,0.0,1.1,89,0.00,,,0.02,WUHU216HW,2013-10-31 20:33:00,
2013-10-31 13:38:00,51.7,48.5,30.19,SW,225,0.4,1.1,89,0.00,,,0.02,WUHU216HW,2013-10-31 20:38:00,
2013-10-31 13:43:00,51.7,48.5,30.19,ESE,113,0.2,1.6,89,0.00,,,0.02,WUHU216HW,2013-10-31 20:43:00,
2013-10-31 13:48:00,51.8,48.7,30.19,East,90,0.0,1.6,89,0.00,,,0.02,WUHU216HW,2013-10-31 20:48:00,
2013-10-31 13:53:00,52.0,48.9,30.19,SW,225,0.2,0.9,89,0.00,,,0.02,WUHU216HW,2013-10-31 20:53:00,
2013-10-31 13:58:00,52.0,48.9,30.19,SSW,203,0.0,0.7,89,0.00,,,0.02,WUHU216HW,2013-10-31 20:58:00,
2013-10-31 14:03:00,52.0,48.9,30.20,WSW,248,0.2,1.1,89,0.00,,,0.02,WUHU216HW,2013-10-31 21:03:00,
2013-10-31 14:08:00,52.2,49.1,30.20,SSE,158,0.0,1.1,89,0.00,,,0.02,WUHU216HW,2013-10-31 21:08:00,
2013-10-31 14:13:00,52.2,49.1,30.20,WSW,248,0.4,1.1,89,0.00,,,0.02,WUHU216HW,2013-10-31 21:13:00,
2013-10-31 14:18:00,52.2,49.1,30.20,South,180,1.8,1.8,89,0.00,,,0.02,WUHU216HW,2013-10-31 21:18:00,
2013-10-31 14:23:00,52.2,48.7,30.20,WSW,248,0.9,2.7,88,0.00,,,0.02,WUHU216HW,2013-10-31 21:23:00,
2013-10-31 14:28:00,52.4,48.9,30.20,SW,225,0.4,2.7,88,0.00,,,0.02,WUHU216HW,2013-10-31 21:28:00,
2013-10-31 14:33:00,52.6,49.1,30.20,West,270,0.4,1.1,88,0.00,,,0.02,WUHU216HW,2013-10-31 21:33:00,
2013-10-31 14:38:00,52.6,49.1,30.20,WSW,248,1.1,1.1,88,0.00,,,0.02,WUHU216HW,2013-10-31 21:38:00,
2013-10-31 14:43:00,52.7,49.2,30.20,SW,225,0.2,1.1,88,0.00,,,0.02,WUHU216HW,2013-10-31 21:43:00,
2013-10-31 14:48:00,52.7,49.2,30.20,SW,225,0.2,1.6,88,0.00,,,0.02,WUHU216HW,2013-10-31 21:48:00,
2013-10-31 14:53:00,52.7,49.2,30.20,SSE,158,0.0,1.6,88,0.00,,,0.02,WUHU216HW,2013-10-31 21:53:00,
2013-10-31 14:58:00,52.9,49.4,30.20,WSW,248,0.7,1.3,88,0.00,,,0.02,WUHU216HW,2013-10-31 21:58:00,
2013-10-31 15:03:00,52.9,49.4,30.21,SW,225,0.4,1.1,88,0.00,,,0.02,WUHU216HW,2013-10-31 22:03:00,
2013-10-31 15:08:00,52.9,49.4,30.21,West,270,0.0,1.8,88,0.00,,,0.02,WUHU216HW,2013-10-31 22:08:00,
2013-10-31 15:13:00,52.9,49.4,30.21,SSW,203,0.0,1.8,88,0.00,,,0.02,WUHU216HW,2013-10-31 22:13:00,
2013-10-31 15:18:00,53.1,49.6,30.20,SSW,203,0.4,0.9,88,0.00,,,0.02,WUHU216HW,2013-10-31 22:18:00,
2013-10-31 15:23:00,53.1,49.3,30.21,WSW,248,0.7,1.3,87,0.00,,,0.02,WUHU216HW,2013-10-31 22:23:00,
2013-10-31 15:28:00,53.1,49.3,30.21,SSW,203,0.4,1.3,87,0.00,,,0.02,WUHU216HW,2013-10-31 22:28:00,
2013-10-31 15:33:00,53.3,49.5,30.21,SW,225,0.4,1.3,87,0.00,,,0.02,WUHU216HW,2013-10-31 22:33:00,
2013-10-31 15:38:00,53.3,49.5,30.21,SW,225,0.0,1.3,87,0.00,,,0.02,WUHU216HW,2013-10-31 22:38:00,
2013-10-31 15:43:00,53.3,49.5,30.21,SW,225,0.2,1.1,87,0.00,,,0.02,WUHU216HW,2013-10-31 22:43:00,
2013-10-31 15:48:00,53.5,49.7,30.21,SSW,203,0.2,1.1,87,0.00,,,0.02,WUHU216HW,2013-10-31 22:48:00,
2013-10-31 15:53:00,53.5,49.7,30.21,South,180,0.0,1.1,87,0.00,,,0.02,WUHU216HW,2013-10-31 22:53:00,
2013-10-31 15:58:00,53.6,49.9,30.21,West,270,0.0,0.4,87,0.00,,,0.02,WUHU216HW,2013-10-31 22:58:00,
2013-10-31 16:03:00,53.6,49.9,30.21,SSE,158,0.2,0.9,87,0.00,,,0.02,WUHU216HW,2013-10-31 23:03:00,
2013-10-31 16:08:00,53.6,49.9,30.22,SSW,203,0.0,1.1,87,0.00,,,0.02,WUHU216HW,2013-10-31 23:08:00,
2013-10-31 16:13:00,53.6,49.5,30.22,SW,225,0.2,1.1,86,0.00,,,0.02,WUHU216HW,2013-10-31 23:13:00,
2013-10-31 16:18:00,53.6,49.5,30.22,South,180,0.4,1.1,86,0.00,,,0.02,WUHU216HW,2013-10-31 23:18:00,
2013-10-31 16:23:00,53.8,49.7,30.22,South,180,0.0,0.4,86,0.00,,,0.02,WUHU216HW,2013-10-31 23:23:00,
2013-10-31 16:28:00,53.8,49.7,30.22,SW,225,1.1,1.1,86,0.00,,,0.02,WUHU216HW,2013-10-31 23:28:00,
2013-10-31 16:33:00,53.8,49.7,30.22,SSW,203,0.2,2.2,86,0.00,,,0.02,WUHU216HW,2013-10-31 23:33:00,
2013-10-31 16:38:00,53.8,49.7,30.21,SE,135,0.4,2.2,86,0.00,,,0.02,WUHU216HW,2013-10-31 23:38:00,
2013-10-31 16:43:00,53.8,49.7,30.22,SE,135,0.4,0.4,86,0.00,,,0.02,WUHU216HW,2013-10-31 23:43:00,
2013-10-31 16:48:00,54.0,49.9,30.21,SE,135,0.0,0.4,86,0.00,,,0.02,WUHU216HW,2013-10-31 23:48:00,
2013-10-31 16:53:00,54.0,49.9,30.22,SE,135,0.0,0.4,86,0.00,,,0.02,WUHU216HW,2013-10-31 23:53:00,
2013-10-31 16:58:00,54.0,49.9,30.22,East,90,1.1,1.6,86,0.00,,,0.02,WUHU216HW,2013-10-31 23:58:00,
2013-10-31 17:03:00,53.8,49.7,30.21,ESE,113,0.4,1.6,86,0.00,,,0.02,WUHU216HW,2013-11-01 00:03:00,
2013-10-31 17:08:00,53.8,50.1,30.22,East,90,0.4,1.3,87,0.00,,,0.02,WUHU216HW,2013-11-01 00:08:00,
2013-10-31 17:13:00,53.8,50.1,30.22,East,90,0.2,0.9,87,0.00,,,0.02,WUHU216HW,2013-11-01 00:13:00,
2013-10-31 17:18:00,53.6,49.9,30.22,East,90,0.4,1.1,87,0.00,,,0.02,WUHU216HW,2013-11-01 00:18:00,
2013-10-31 17:23:00,53.6,49.9,30.22,East,90,0.0,1.1,87,0.00,,,0.02,WUHU216HW,2013-11-01 00:23:00,
2013-10-31 17:28:00,53.6,49.9,30.22,East,90,0.0,0.4,87,0.00,,,0.02,WUHU216HW,2013-11-01 00:28:00,
2013-10-31 17:33:00,53.6,49.9,30.22,East,90,0.0,0.2,87,0.00,,,0.02,WUHU216HW,2013-11-01 00:33:00,
2013-10-31 17:38:00,53.6,49.9,30.22,East,90,0.0,0.4,87,0.00,,,0.02,WUHU216HW,2013-11-01 00:38:00,
2013-10-31 17:43:00,53.5,49.7,30.22,East,90,0.2,0.4,87,0.00,,,0.02,WUHU216HW,2013-11-01 00:43:00,
2013-10-31 17:48:00,53.5,49.7,30.22,East,90,0.0,0.4,87,0.00,,,0.02,WUHU216HW,2013-11-01 00:48:00,
2013-10-31 17:53:00,53.5,49.7,30.22,ESE,113,0.0,0.4,87,0.00,,,0.02,WUHU216HW,2013-11-01 00:53:00,
2013-10-31 17:58:00,53.5,49.7,30.22,ESE,113,0.0,0.4,87,0.00,,,0.02,WUHU216HW,2013-11-01 00:58:00,
2013-10-31 18:03:00,53.3,49.5,30.22,ESE,113,0.2,0.4,87,0.00,,,0.02,WUHU216HW,2013-11-01 01:03:00,
2013-10-31 18:08:00,53.3,49.5,30.22,ESE,113,0.0,0.4,87,0.00,,,0.02,WUHU216HW,2013-11-01 01:08:00,
2013-10-31 18:13:00,53.1,49.3,30.21,ESE,113,0.0,0.4,87,0.00,,,0.02,WUHU216HW,2013-11-01 01:13:00,
2013-10-31 18:18:00,52.9,49.4,30.22,ESE,113,0.0,0.4,88,0.00,,,0.02,WUHU216HW,2013-11-01 01:18:00,
2013-10-31 18:23:00,52.9,49.4,30.22,ESE,113,0.0,0.2,88,0.00,,,0.02,WUHU216HW,2013-11-01 01:23:00,
2013-10-31 18:28:00,52.9,49.4,30.22,ESE,113,0.0,0.2,88,0.00,,,0.02,WUHU216HW,2013-11-01 01:28:00,
2013-10-31 18:33:00,52.9,49.4,30.22,ESE,113,0.0,0.2,88,0.00,,,0.02,WUHU216HW,2013-11-01 01:33:00,
2013-10-31 18:38:00,52.9,49.4,30.22,ESE,113,0.0,0.4,88,0.00,,,0.02,WUHU216HW,2013-11-01 01:38:00,
2013-10-31 18:43:00,52.9,49.4,30.22,ESE,113,0.0,0.4,88,0.00,,,0.02,WUHU216HW,2013-11-01 01:43:00,
2013-10-31 18:48:00,52.9,49.4,30.22,ESE,113,0.0,0.4,88,0.00,,,0.02,WUHU216HW,2013-11-01 01:48:00,
2013-10-31 18:53:00,52.7,49.2,30.23,ESE,113,0.0,0.4,88,0.00,,,0.02,WUHU216HW,2013-11-01 01:53:00,
2013-10-31 18:58:00,52.7,49.2,30.23,ESE,113,0.0,0.0,88,0.00,,,0.02,WUHU216HW,2013-11-01 01:58:00,
2013-10-31 19:03:00,52.7,49.2,30.23,ESE,113,0.0,0.0,88,0.00,,,0.02,WUHU216HW,2013-11-01 02:03:00,
2013-10-31 19:08:00,52.7,49.2,30.23,ESE,113,0.0,0.0,88,0.00,,,0.02,WUHU216HW,2013-11-01 02:08:00,
2013-10-31 19:13:00,52.6,49.4,30.23,ESE,113,0.0,0.0,89,0.00,,,0.02,WUHU216HW,2013-11-01 02:13:00,
2013-10-31 19:18:00,52.6,49.1,30.24,ESE,113,0.0,0.0,88,0.00,,,0.02,WUHU216HW,2013-11-01 02:18:00,
2013-10-31 19:23:00,52.6,49.4,30.24,ESE,113,0.0,0.0,89,0.00,,,0.02,WUHU216HW,2013-11-01 02:23:00,
2013-10-31 19:28:00,52.6,49.4,30.24,ESE,113,0.0,0.0,89,0.00,,,0.02,WUHU216HW,2013-11-01 02:28:00,
2013-10-31 19:33:00,52.4,49.2,30.24,ESE,113,0.0,0.0,89,0.00,,,0.02,WUHU216HW,2013-11-01 02:33:00,
2013-10-31 19:38:00,52.2,49.1,30.24,ESE,113,0.0,0.0,89,0.00,,,0.02,WUHU216HW,2013-11-01 02:38:00,
2013-10-31 19:43:00,52.2,49.1,30.24,ESE,113,0.0,0.0,89,0.00,,,0.02,WUHU216HW,2013-11-01 02:43:00,
2013-10-31 19:48:00,52.0,48.9,30.24,ESE,113,0.0,0.0,89,0.00,,,0.02,WUHU216HW,2013-11-01 02:48:00,
2013-10-31 19:53:00,51.8,48.7,30.24,ESE,113,0.0,0.0,89,0.00,,,0.02,WUHU216HW,2013-11-01 02:53:00,
2013-10-31 19:58:00,51.7,48.5,30.24,ESE,113,0.0,0.0,89,0.00,,,0.02,WUHU216HW,2013-11-01 02:58:00,
2013-10-31 20:03:00,51.5,48.3,30.24,ESE,113,0.0,0.0,89,0.00,,,0.02,WUHU216HW,2013-11-01 03:03:00,
2013-10-31 20:08:00,51.5,48.3,30.24,ESE,113,0.0,0.0,89,0.00,,,0.02,WUHU216HW,2013-11-01 03:08:00,
2013-10-31 20:13:00,51.3,48.2,30.24,ESE,113,0.0,0.0,89,0.00,,,0.02,WUHU216HW,2013-11-01 03:13:00,
2013-10-31 20:18:00,51.1,48.0,30.25,ESE,113,0.0,0.0,89,0.00,,,0.02,WUHU216HW,2013-11-01 03:18:00,
2013-10-31 20:23:00,51.1,48.0,30.25,ESE,113,0.0,0.0,89,0.00,,,0.02,WUHU216HW,2013-11-01 03:23:00,
2013-10-31 20:28:00,50.9,47.8,30.25,ESE,113,0.0,0.0,89,0.00,,,0.02,WUHU216HW,2013-11-01 03:28:00,
2013-10-31 20:33:00,50.9,47.8,30.25,ESE,113,0.0,0.0,89,0.00,,,0.02,WUHU216HW,2013-11-01 03:33:00,
2013-10-31 20:38:00,50.9,48.1,30.25,ESE,113,0.0,0.0,90,0.00,,,0.02,WUHU216HW,2013-11-01 03:38:00,
2013-10-31 20:43:00,50.9,47.8,30.25,ESE,113,0.0,0.2,89,0.00,,,0.02,WUHU216HW,2013-11-01 03:43:00,
2013-10-31 20:48:00,50.9,47.8,30.25,ESE,113,0.0,0.2,89,0.02,,,0.04,WUHU216HW,2013-11-01 03:48:00,
2013-10-31 20:53:00,50.8,47.6,30.25,ESE,113,0.0,0.0,89,0.02,,,0.04,WUHU216HW,2013-11-01 03:53:00,
2013-10-31 20:58:00,50.8,47.6,30.25,ESE,113,0.0,0.0,89,0.02,,,0.04,WUHU216HW,2013-11-01 03:58:00,
2013-10-31 21:01:00,50.8,47.6,30.25,ESE,113,0.0,0.0,89,0.02,,,0.04,WUHU216HW,2013-11-01 04:01:00,
2013-10-31 21:06:00,50.6,47.4,30.25,ESE,113,0.0,0.0,89,0.02,,,0.04,WUHU216HW,2013-11-01 04:06:00,
2013-10-31 21:11:00,50.6,47.4,30.25,ESE,113,0.0,0.0,89,0.02,,,0.04,WUHU216HW,2013-11-01 04:11:00,
2013-10-31 21:16:00,50.4,47.3,30.25,ESE,113,0.0,0.0,89,0.02,,,0.04,WUHU216HW,2013-11-01 04:16:00,
2013-10-31 21:21:00,50.4,47.3,30.25,ESE,113,0.0,0.0,89,0.02,,,0.04,WUHU216HW,2013-11-01 04:21:00,
2013-10-31 21:26:00,50.4,47.5,30.25,ESE,113,0.0,0.0,90,0.02,,,0.04,WUHU216HW,2013-11-01 04:26:00,
2013-10-31 21:31:00,50.4,47.5,30.25,ESE,113,0.0,0.0,90,0.02,,,0.04,WUHU216HW,2013-11-01 04:31:00,
2013-10-31 21:36:00,50.2,47.3,30.25,ESE,113,0.0,0.0,90,0.02,,,0.04,WUHU216HW,2013-11-01 04:36:00,
2013-10-31 21:41:00,50.2,47.3,30.25,ESE,113,0.0,0.0,90,0.02,,,0.04,WUHU216HW,2013-11-01 04:41:00,
2013-10-31 21:46:00,50.0,47.2,30.25,ESE,113,0.0,0.0,90,0.00,,,0.04,WUHU216HW,2013-11-01 04:46:00,
2013-10-31 21:51:00,50.0,47.2,30.25,ESE,113,0.0,0.2,90,0.00,,,0.04,WUHU216HW,2013-11-01 04:51:00,
2013-10-31 21:56:00,50.0,47.2,30.25,ESE,113,0.0,0.2,90,0.00,,,0.04,WUHU216HW,2013-11-01 04:56:00,
2013-10-31 22:01:00,49.9,47.0,30.25,ESE,113,0.0,0.0,90,0.00,,,0.04,WUHU216HW,2013-11-01 05:01:00,
2013-10-31 22:06:00,49.9,47.0,30.25,ESE,113,0.0,0.0,90,0.00,,,0.04,WUHU216HW,2013-11-01 05:06:00,
2013-10-31 22:11:00,49.9,47.3,30.25,ESE,113,0.0,0.2,91,0.00,,,0.04,WUHU216HW,2013-11-01 05:11:00,
2013-10-31 22:16:00,49.9,47.3,30.26,ESE,113,0.2,0.2,91,0.00,,,0.04,WUHU216HW,2013-11-01 05:16:00,
2013-10-31 22:21:00,49.9,47.3,30.26,ESE,113,0.0,0.2,91,0.00,,,0.04,WUHU216HW,2013-11-01 05:21:00,
2013-10-31 22:26:00,50.0,47.4,30.26,ESE,113,0.0,0.2,91,0.00,,,0.04,WUHU216HW,2013-11-01 05:26:00,
2013-10-31 22:31:00,50.0,47.4,30.26,ESE,113,0.0,0.0,91,0.00,,,0.04,WUHU216HW,2013-11-01 05:31:00,
2013-10-31 22:36:00,50.0,47.4,30.26,ESE,113,0.0,0.0,91,0.00,,,0.04,WUHU216HW,2013-11-01 05:36:00,
2013-10-31 22:41:00,50.0,47.4,30.26,ESE,113,0.0,0.0,91,0.00,,,0.04,WUHU216HW,2013-11-01 05:41:00,
2013-10-31 22:45:00,50.0,47.4,30.26,ESE,113,0.0,0.0,91,0.00,,,0.04,WUHU216HW,2013-11-01 05:45:00,
2013-10-31 22:50:00,50.0,47.4,30.26,ESE,113,0.0,0.0,91,0.00,,,0.04,WUHU216HW,2013-11-01 05:50:00,
2013-10-31 22:55:00,50.0,47.4,30.26,ESE,113,0.0,0.0,91,0.00,,,0.04,WUHU216HW,2013-11-01 05:55:00,
2013-10-31 23:00:00,50.0,47.4,30.27,ESE,113,0.0,0.0,91,0.00,,,0.04,WUHU216HW,2013-11-01 06:00:00,
2013-10-31 23:05:00,50.0,47.4,30.27,ESE,113,0.0,0.0,91,0.00,,,0.04,WUHU216HW,2013-11-01 06:05:00,
2013-10-31 23:10:00,50.0,47.4,30.26,ESE,113,0.0,0.0,91,0.00,,,0.04,WUHU216HW,2013-11-01 06:10:00,
2013-10-31 23:15:00,50.0,47.4,30.26,ESE,113,0.0,0.0,91,0.00,,,0.04,WUHU216HW,2013-11-01 06:15:00,
2013-10-31 23:20:00,50.0,47.4,30.26,ESE,113,0.0,0.0,91,0.00,,,0.04,WUHU216HW,2013-11-01 06:20:00,
2013-10-31 23:25:00,50.0,47.4,30.26,ESE,113,0.0,0.0,91,0.00,,,0.04,WUHU216HW,2013-11-01 06:25:00,
2013-10-31 23:30:00,50.0,47.4,30.26,ESE,113,0.0,0.0,91,0.00,,,0.04,WUHU216HW,2013-11-01 06:30:00,
2013-10-31 23:35:00,50.0,47.4,30.26,ESE,113,0.0,0.0,91,0.00,,,0.04,WUHU216HW,2013-11-01 06:35:00,
2013-10-31 23:40:00,50.0,47.4,30.26,ESE,113,0.0,0.2,91,0.00,,,0.04,WUHU216HW,2013-11-01 06:40:00,
2013-10-31 23:45:00,50.0,47.4,30.26,ESE,113,0.0,0.2,91,0.00,,,0.04,WUHU216HW,2013-11-01 06:45:00,
2013-10-31 23:50:00,49.9,47.3,30.26,ESE,113,0.0,0.0,91,0.00,,,0.04,WUHU216HW,2013-11-01 06:50:00,
2013-10-31 23:55:00,49.9,47.3,30.25,ESE,113,0.0,0.0,91,0.00,,,0.04,WUHU216HW,2013-11-01 06:55:00,